TimeMST,TemperatureF,Dew PointF,Humidity,Sea Level PressureIn,VisibilityMPH,Wind Direction,Wind SpeedMPH,Gust SpeedMPH,PrecipitationIn,Events,Conditions,WindDirDegrees,DateUTC
12:15 AM,19.4,17.6,93,29.69,5.0,SW,3.5,-,N/A,Snow,Light Snow,230,2014-02-04 07:15:00
12:35 AM,-9999,-9999,N/A,29.69,4.0,SW,3.5,-,N/A,,Unknown,230,2014-02-04 07:35:00
12:55 AM,-9999,-9999,N/A,29.70,10.0,Calm,Calm,-,N/A,,Overcast,0,2014-02-04 07:55:00
1:15 AM,-9999,-9999,N/A,29.69,4.0,Calm,Calm,-,N/A,,Unknown,0,2014-02-04 08:15:00
1:35 AM,-9999,-9999,N/A,29.69,10.0,Calm,Calm,-,N/A,,Unknown,0,2014-02-04 08:35:00
1:55 AM,-9999,-9999,N/A,29.69,5.0,Calm,Calm,-,N/A,,Unknown,0,2014-02-04 08:55:00
2:15 AM,-9999,-9999,N/A,29.69,4.0,Calm,Calm,-,N/A,,Unknown,0,2014-02-04 09:15:00
2:35 AM,-9999,-9999,N/A,29.69,4.0,Calm,Calm,-,N/A,,Unknown,0,2014-02-04 09:35:00
2:55 AM,-9999,-9999,N/A,29.69,3.0,Calm,Calm,-,N/A,,Unknown,0,2014-02-04 09:55:00
3:15 AM,-9999,-9999,N/A,29.69,2.5,Calm,Calm,-,N/A,,Unknown,0,2014-02-04 10:15:00
3:35 AM,-9999,-9999,N/A,29.69,1.8,Calm,Calm,-,N/A,,Unknown,0,2014-02-04 10:35:00
3:55 AM,-9999,-9999,N/A,29.69,4.0,WSW,3.5,-,N/A,,Unknown,240,2014-02-04 10:55:00
4:15 AM,-9999,-9999,N/A,29.69,7.0,West,3.5,-,N/A,,Unknown,260,2014-02-04 11:15:00
4:35 AM,-9999,-9999,N/A,29.69,7.0,WSW,3.5,-,N/A,,Unknown,240,2014-02-04 11:35:00
4:55 AM,-9999,-9999,N/A,29.69,3.0,SSW,3.5,-,N/A,,Unknown,200,2014-02-04 11:55:00
5:15 AM,-9999,-9999,N/A,29.69,3.0,Calm,Calm,-,N/A,,Unknown,0,2014-02-04 12:15:00
5:35 AM,-9999,-9999,N/A,29.69,2.0,Calm,Calm,-,N/A,,Unknown,0,2014-02-04 12:35:00
5:55 AM,-9999,-9999,N/A,29.69,4.0,Calm,Calm,-,N/A,,Unknown,0,2014-02-04 12:55:00
6:15 AM,-9999,-9999,N/A,29.69,1.8,Calm,Calm,-,N/A,,Unknown,0,2014-02-04 13:15:00
6:35 AM,-9999,-9999,N/A,29.69,5.0,Calm,Calm,-,N/A,,Unknown,0,2014-02-04 13:35:00
6:55 AM,-9999,-9999,N/A,29.70,2.5,Calm,Calm,-,N/A,,Unknown,0,2014-02-04 13:55:00
7:15 AM,-9999,-9999,N/A,29.69,1.8,Calm,Calm,-,N/A,,Unknown,0,2014-02-04 14:15:00
7:35 AM,-9999,-9999,N/A,29.70,0.8,Calm,Calm,-,N/A,,Unknown,0,2014-02-04 14:35:00
7:55 AM,-9999,-9999,N/A,29.70,3.0,Calm,Calm,-,N/A,,Unknown,0,2014-02-04 14:55:00
8:15 AM,-9999,-9999,N/A,29.71,0.5,South,3.5,-,N/A,,Unknown,170,2014-02-04 15:15:00
8:35 AM,-9999,-9999,N/A,29.71,1.0,Calm,Calm,-,N/A,,Unknown,0,2014-02-04 15:35:00
8:55 AM,-9999,-9999,N/A,29.72,1.0,South,4.6,-,N/A,,Unknown,170,2014-02-04 15:55:00
9:15 AM,-9999,-9999,N/A,29.72,0.2,South,3.5,-,N/A,,Unknown,190,2014-02-04 16:15:00
9:35 AM,-9999,-9999,N/A,29.72,0.2,WSW,6.9,-,N/A,,Unknown,240,2014-02-04 16:35:00
9:55 AM,-9999,-9999,N/A,29.73,1.0,West,9.2,-,N/A,,Unknown,280,2014-02-04 16:55:00
10:15 AM,-9999,-9999,N/A,29.73,0.5,WNW,6.9,-,N/A,,Unknown,290,2014-02-04 17:15:00
10:35 AM,-9999,-9999,N/A,29.74,2.5,West,11.5,19.6,N/A,,Unknown,270,2014-02-04 17:35:00
10:55 AM,17.6,15.8,93,29.74,0.8,WNW,12.7,18.4,N/A,Snow,Light Snow,290,2014-02-04 17:55:00
11:15 AM,19.4,15.8,86,29.74,5.0,West,9.2,17.3,N/A,Snow,Light Snow,280,2014-02-04 18:15:00
11:35 AM,21.2,14.0,74,29.74,7.0,West,12.7,-,N/A,,Mostly Cloudy,270,2014-02-04 18:35:00
11:55 AM,21.2,12.2,68,29.73,5.0,West,10.4,-,N/A,Snow,Light Snow,280,2014-02-04 18:55:00
12:15 PM,21.2,12.2,68,29.72,4.0,West,9.2,-,N/A,Snow,Light Snow,270,2014-02-04 19:15:00
12:35 PM,21.2,12.2,68,29.72,10.0,West,11.5,-,N/A,,Scattered Clouds,270,2014-02-04 19:35:00
12:55 PM,21.2,12.2,68,29.71,10.0,West,8.1,-,N/A,,Clear,260,2014-02-04 19:55:00
1:15 PM,21.2,10.4,63,29.70,10.0,West,9.2,16.1,N/A,,Mostly Cloudy,270,2014-02-04 20:15:00
1:35 PM,21.2,10.4,63,29.70,7.0,West,13.8,17.3,N/A,Snow,Light Snow,260,2014-02-04 20:35:00
1:55 PM,19.4,14.0,80,29.70,2.5,West,10.4,-,N/A,Snow,Light Snow,270,2014-02-04 20:55:00
2:15 PM,19.4,15.8,86,29.70,1.2,West,13.8,-,N/A,Snow,Light Snow,270,2014-02-04 21:15:00
2:35 PM,17.6,15.8,93,29.71,0.2,West,13.8,20.7,N/A,Snow,Snow,270,2014-02-04 21:35:00
2:55 PM,17.6,14.0,86,29.72,0.5,WNW,6.9,20.7,N/A,Snow,Snow,290,2014-02-04 21:55:00
3:15 PM,17.6,12.2,79,29.74,0.5,West,10.4,20.7,N/A,Snow,Snow,270,2014-02-04 22:15:00
3:35 PM,17.6,14.0,86,29.74,0.8,West,8.1,-,N/A,Snow,Light Snow,270,2014-02-04 22:35:00
3:55 PM,17.6,14.0,86,29.75,0.8,West,6.9,-,N/A,Snow,Light Snow,260,2014-02-04 22:55:00
4:15 PM,17.6,14.0,86,29.76,0.2,West,16.1,21.9,N/A,Snow,Snow,270,2014-02-04 23:15:00
4:35 PM,17.6,12.2,79,29.77,2.0,West,10.4,20.7,N/A,Snow,Light Snow,260,2014-02-04 23:35:00
5:15 PM,15.8,12.2,86,29.78,1.8,West,8.1,-,N/A,Snow,Light Snow,260,2014-02-05 00:15:00
5:35 PM,15.8,12.2,86,29.79,0.8,West,9.2,-,N/A,Snow,Light Snow,260,2014-02-05 00:35:00
5:55 PM,14.0,12.2,93,29.80,1.5,SW,4.6,-,N/A,Snow,Light Snow,230,2014-02-05 00:55:00
6:15 PM,14.0,14.0,100,29.81,1.5,SW,4.6,-,N/A,Snow,Light Snow,220,2014-02-05 01:15:00
6:35 PM,14.0,12.2,93,29.82,1.0,SW,3.5,-,N/A,Snow,Snow,230,2014-02-05 01:35:00
6:55 PM,14.0,14.0,100,29.82,1.0,WSW,5.8,-,N/A,Snow,Snow,240,2014-02-05 01:55:00
7:15 PM,14.0,12.2,93,29.83,1.2,SW,5.8,-,N/A,Snow,Snow,230,2014-02-05 02:15:00
7:35 PM,14.0,12.2,93,29.84,1.0,SW,3.5,-,N/A,Snow,Snow,220,2014-02-05 02:35:00
7:55 PM,14.0,12.2,93,29.85,1.8,WSW,3.5,-,N/A,Snow,Light Snow,250,2014-02-05 02:55:00
8:15 PM,14.0,12.2,93,29.85,3.0,West,6.9,-,N/A,Snow,Light Snow,270,2014-02-05 03:15:00
8:35 PM,14.0,12.2,93,29.86,1.2,West,12.7,17.3,N/A,Snow,Light Snow,260,2014-02-05 03:35:00
8:55 PM,12.2,12.2,100,29.87,2.0,WSW,8.1,-,N/A,Snow,Light Snow,250,2014-02-05 03:55:00
9:15 PM,12.2,10.4,92,29.87,3.0,WSW,5.8,-,N/A,Snow,Light Snow,250,2014-02-05 04:15:00
9:35 PM,12.2,10.4,92,29.88,2.5,SW,3.5,-,N/A,Snow,Light Snow,230,2014-02-05 04:35:00
9:55 PM,12.2,10.4,92,29.89,1.8,Calm,Calm,-,N/A,Snow,Light Snow,0,2014-02-05 04:55:00
10:15 PM,12.2,10.4,92,29.90,1.0,Calm,Calm,-,N/A,Snow,Snow,0,2014-02-05 05:15:00
10:35 PM,12.2,10.4,92,29.91,1.2,Calm,Calm,-,N/A,Snow,Light Snow,0,2014-02-05 05:35:00
10:55 PM,12.2,10.4,92,29.91,1.5,Calm,Calm,-,N/A,Snow,Light Snow,0,2014-02-05 05:55:00
11:15 PM,12.2,10.4,92,29.92,2.5,Calm,Calm,-,N/A,Snow,Light Snow,0,2014-02-05 06:15:00
11:35 PM,10.4,8.6,92,29.92,2.5,Calm,Calm,-,N/A,Snow,Light Snow,0,2014-02-05 06:35:00
11:55 PM,10.4,8.6,92,29.92,7.0,Calm,Calm,-,N/A,Snow,Light Snow,0,2014-02-05 06:55:00